Zurück zum Katalog

CZ-4 R/B

AktivSSO
NORAD 19468·ROCKET BODY·🇨🇳 China

Gestartet Sep 6, 1988 von Taiyuan Satellite Launch Center

Loading…

Nächste Überflüge (nächste 24 Stunden)

TLE

AktuellSource: Space-Track

Epoche: Sep 14, 2026, 14:56 UTC

1 19468U 88080B   26257.62229249 -.00000215  00000-0 -10656-3 0  9991
2 19468  98.9491 304.9656 0071927  42.8619 119.8369 14.03771389946738

Verfolge CZ-4 R/B in Echtzeit mit AllMySat

Download on the App Store